STARLINK-1696

decayed
NORAD ID: 46545 Int'l Des: 2020-070 Owner: SPXS Country: US Constellation: starlink
LEOCIRCULAR
Group

About STARLINK-1696

Description loading...

Altitude History

Altitude vs Time

uPlot chart will show altitude changes over time

Two-Line Element Set

1 46545U 20070P 25119.02373756 .21375455 12516-4 45925-3 0 9993
2 46545 53.0179 105.6885 0005323 252.4592 221.6678 16.46478098252684
Epoch: Apr 29, 2025 • Age: 3356 hours

Current Status

Position data unavailable
Launch Date Oct 6, 2020
Age 4.9 years
Decay Date Apr 29, 2025
Type internet

Technical Details

Classification Payload
Mass 260.00 kg
Dry Mass 248.00 kg
Total Mass 260.00 kg
Length 0.20 m
Diameter 2.80 m
Span 9.00 m
Shape Box + pan
Manufacturer SPXS
Bus Type Starlink
Phase Status Unknown Transfer Status
Owner/State SPXS/US

Large Constellations

Loading constellations...